Regional Weather Roundup
Issued by NWS

Home | Current Version | Previous Version | Graphics & Text | Print | Product List | Glossary On
Versions: 1 2 3 4 5 6 7 8 9 10 11 12 13 14 15 16 17 18 19 20 21 22 23 24 25 26 27 28 29 30 31 32 33 34 35 36 37 38 39 40 41 42 43 44 45 46 47 48 49 50
000
ASUS43 KFSD 280410
RWRSD

WEATHER ROUNDUP FOR SOUTH DAKOTA
NATIONAL WEATHER SERVICE SIOUX FALLS SD
1100 PM CDT SAT MAY 27 2017

NOTE: "FAIR" INDICATES FEW OR NO CLOUDS BELOW 12,000 FEET WITH NO
SIGNIFICANT WEATHER AND/OR OBSTRUCTIONS TO VISIBILITY.


SDZ001>005-009-010-012>017-280500-
NORTHWEST AND NORTH CENTRAL SOUTH DAKOTA

CITY           SKY/WX    TMP DP  RH WIND       PRES   REMARKS
BUFFALO          N/A     55  45  68 W10       29.93S
FAITH            N/A     54  46  74 W14       29.96R
MOBRIDGE       CLEAR     52  47  83 N5        29.88S
$$

SDZ012>016-024>037-041>051-057-063-072>074-280500-
SOUTHWEST AND SOUTH CENTRAL SOUTH DAKOTA

CITY           SKY/WX    TMP DP  RH WIND       PRES   REMARKS
RAPID CTY ARPT CLOUDY    58  39  49 W9        30.04F
PIERRE         CLOUDY    60  44  55 W6        29.91R
CUSTER         PTCLDY    50  34  54 NW6       30.14R
ELLSWORTH AFB  MOCLDY    56  42  61 W10       30.03S
PHILIP         CLOUDY    60  45  57 NW7       29.98R
PINE RIDGE     CLOUDY    57  46  66 SW3       30.06R
SPEARFISH      FAIR      55  41  58 W12       30.08R
WINNER         MOCLDY    58  46  64 W9        29.95R
$$

SDZ004>011-016>023-039-040-280500-
NORTHEAST SOUTH DAKOTA

CITY           SKY/WX    TMP DP  RH WIND       PRES   REMARKS
ABERDEEN       MOCLDY    56  48  74 NW7       29.83F
WATERTOWN      MOCLDY    59  48  67 SW15      29.83F
BROOKINGS      CLEAR     56  48  74 SW9       29.87F
SISSETON         N/A     59  51  75 NW12G23   29.82R
$$

SDZ017-020-022-023-036>040-048>070-280500-
SOUTHEAST SOUTH DAKOTA

CITY           SKY/WX    TMP DP  RH WIND       PRES   REMARKS
SIOUX FALLS    PTCLDY    58  52  80 SW3       29.90F
HURON          CLOUDY    61  46  57 W5        29.86R
CHAMBERLAIN    CLOUDY    63  49  62 SW5       29.91S
MITCHELL       CLEAR     59  50  72 SW10      29.89S
YANKTON        PTCLDY    56  52  86 SW7       29.93S
$$

ABBREVIATIONS USED IN REMARKS
   TC - TEMPERATURE IN CELSIUS
  WCI - WIND CHILL INDEX
   HX - HEAT INDEX
  VSB - VISIBILITY





USA.gov is the U.S. government's official web portal to all federal, state and local government web resources and services.